1498449600.43,2435,21.0,73836.8,5.51,5.07,5.05,0,*4E
1498449601.6,2436,21.0,73834.0,5.53,5.11,5.07,0,*4A
1498449602.83,2437,21.0,73834.0,5.51,5.05,5.07,0,*4C
1498449604.05,2438,21.0,73834.3,5.51,5.05,5.07,0,*43
1498449605.22,2439,21.0,73834.8,5.53,5.11,5.15,0,*46
1498449606.44,2440,21.0,73834.3,5.51,5.07,5.05,0,*4C
1498449607.61,2441,21.0,73836.3,5.53,5.11,5.07,0,*4A
1498449608.78,2442,21.0,73836.0,5.53,5.07,5.11,0,*49
1498449609.95,2443,21.0,73834.5,5.53,5.07,5.07,0,*4F
1498449611.15,2444,21.0,73836.0,5.53,5.05,5.07,0,*4A
1498449612.38,2445,21.0,73836.0,5.51,5.05,5.07,0,*49
1498449613.55,2446,21.0,73832.3,5.53,5.07,5.11,0,*4D
1498449614.72,2447,21.0,73836.0,5.53,5.11,5.11,0,*4B
1498449615.89,2448,21.0,73834.8,5.53,5.11,5.11,0,*44
1498449617.07,2449,21.0,73836.8,5.53,5.19,5.11,0,*4D
1498449618.24,2450,21.0,73838.0,5.53,5.11,5.07,0,*4A
1498449619.44,2451,21.0,73836.5,5.57,5.11,5.11,0,*48
1498449620.63,2452,21.0,73836.3,5.57,5.15,5.11,0,*4F
1498449621.83,2453,21.0,73836.0,5.57,5.11,5.11,0,*4A
1498449623.03,2454,21.0,73838.8,5.57,5.11,5.15,0,*49
1498449624.22,2455,21.0,73836.0,5.57,5.15,5.15,0,*4C
1498449625.42,2456,21.0,73838.3,5.57,5.11,5.11,0,*4F
1498449626.6,2457,21.0,73842.5,5.59,5.11,5.15,0,*44
1498449627.79,2458,21.0,73840.3,5.57,5.11,5.15,0,*45
1498449628.99,2459,21.0,73840.3,5.57,5.11,5.11,0,*40
1498449630.19,2460,21.0,73836.3,5.57,5.15,5.11,0,*4E
1498449631.39,2461,21.0,73838.3,5.57,5.11,5.11,0,*4B
1498449632.64,2462,21.0,73836.3,5.57,5.01,5.01,0,*48
1498449633.86,2463,21.0,73842.5,5.61,5.07,5.05,0,*4E
1498449635.09,2464,21.0,73838.8,5.57,5.05,5.11,0,*4B
1498449636.28,2465,21.0,73836.0,5.57,5.15,5.11,0,*4B
1498449637.46,2466,21.0,73838.5,5.59,5.15,5.11,0,*46
1498449638.63,2467,21.0,73838.0,5.59,5.11,5.11,0,*43
1498449639.81,2468,21.0,73836.0,5.59,5.11,5.11,0,*4C
1498449641.03,2469,21.0,73836.0,5.57,5.05,5.15,0,*42
1498449642.26,2470,21.0,73838.5,5.57,5.05,5.11,0,*4E
1498449643.43,2471,21.0,73834.8,5.59,5.15,5.11,0,*40
1498449644.63,2472,21.0,73836.8,5.57,5.11,5.15,0,*4D
1498449645.83,2473,21.0,73836.8,5.57,5.11,5.11,0,*48
1498449647.01,2474,21.0,73836.3,5.59,5.11,5.11,0,*41
1498449648.18,2475,21.0,73834.8,5.59,5.15,5.11,0,*44
1498449649.35,2476,21.0,73836.8,5.59,5.11,5.15,0,*47
1498449650.57,2477,21.0,73836.3,5.57,5.15,5.05,0,*4D
1498449651.75,2478,21.0,73836.0,5.59,5.11,5.11,0,*4D
1498449652.92,2479,21.0,73832.8,5.59,5.11,5.15,0,*48
1498449654.1,2480,21.0,73834.8,5.59,5.11,5.15,0,*4E
1498449655.29,2481,21.0,73836.8,5.57,5.11,5.15,0,*41
1498449656.47,2482,21.0,73836.0,5.59,5.11,5.11,0,*48
1498449657.64,2483,21.0,73838.5,5.59,5.15,5.15,0,*49
1498449658.83,2484,21.0,73836.0,5.57,5.15,5.15,0,*40
1498449660.01,2485,21.0,73838.3,5.59,5.11,5.11,0,*4F
1498449661.18,2486,21.0,73838.0,5.59,5.11,5.11,0,*4C
1498449662.36,2487,21.0,73838.5,5.59,5.15,5.11,0,*49
1498449663.53,2488,21.0,73838.5,5.59,5.11,5.11,0,*42
1498449664.71,2489,21.0,73834.0,5.59,5.11,5.15,0,*47
1498449665.88,2490,21.0,73834.8,5.59,5.11,5.11,0,*4B
1498449667.06,2491,21.0,73838.5,5.59,5.11,5.11,0,*4A
1498449668.24,2492,21.0,73836.0,5.59,5.11,5.11,0,*49
1498449669.41,2493,21.0,73834.3,5.59,5.15,5.11,0,*4C
1498449670.58,2494,21.0,73836.3,5.59,5.15,5.15,0,*4F
1498449671.75,2495,21.0,73834.0,5.59,5.15,5.15,0,*4E
1498449672.92,2496,21.0,73836.3,5.59,5.15,5.15,0,*4D
1498449674.09,2497,21.0,73836.3,5.59,5.15,5.15,0,*4C
1498449675.26,2498,21.0,73836.5,5.59,5.11,5.15,0,*47
1498449676.46,2499,21.0,73832.5,5.57,5.15,5.23,0,*49
1498449677.64,2500,21.0,73834.3,5.59,5.15,5.23,0,*46
1498449678.84,2501,21.0,73832.5,5.59,5.23,5.27,0,*46
1498449680.02,2502,21.0,73834.5,5.59,5.23,5.23,0,*41
1498449681.19,2503,21.0,73832.8,5.59,5.15,5.23,0,*45
1498449682.37,2504,21.0,73836.5,5.59,5.15,5.23,0,*42
1498449683.54,2505,21.0,73838.0,5.59,5.15,5.23,0,*43
1498449684.72,2506,21.0,73836.8,5.59,5.15,5.23,0,*40
1498449685.94,2507,21.0,73836.8,5.61,5.19,5.27,0,*42
1498449687.17,2508,21.0,73832.5,5.61,5.27,5.27,0,*40
1498449688.4,2509,21.0,73836.8,5.61,5.27,5.27,0,*41
1498449689.64,2510,21.0,73834.3,5.61,5.27,5.27,0,*49
1498449690.87,2511,21.0,73832.5,5.61,5.27,5.27,0,*48
1498449692.1,2512,21.0,73838.3,5.61,5.27,5.27,0,*4B
1498449693.28,2513,21.0,73834.8,5.63,5.19,5.19,0,*48
1498449694.5,2514,21.0,73832.5,5.61,5.19,5.27,0,*40
1498449695.7,2515,21.0,73838.5,5.61,5.27,5.29,0,*42
1498449696.91,2516,21.0,73832.5,5.63,5.27,5.27,0,*4D
1498449698.1,2517,21.0,73838.5,5.63,5.15,5.27,0,*4D
1498449699.29,2518,21.0,73834.3,5.63,5.27,5.29,0,*4D
1498449700.48,2519,21.0,73838.3,5.63,5.27,5.19,0,*4F
1498449701.68,2520,21.0,73836.8,5.61,5.19,5.19,0,*4A
1498449702.85,2521,21.0,73838.3,5.63,5.19,5.19,0,*49
1498449704.03,2522,21.0,73832.5,5.63,5.15,5.19,0,*46
1498449705.23,2523,21.0,73838.8,5.61,5.19,5.19,0,*49
1498449706.42,2524,21.0,73836.8,5.61,5.15,5.15,0,*4E
1498449707.59,2525,21.0,73838.5,5.63,5.19,5.19,0,*4D
1498449708.77,2526,21.0,73836.0,5.63,5.19,5.15,0,*42
1498449709.96,2527,21.0,73834.0,5.61,5.19,5.15,0,*41
1498449711.15,2528,21.0,73832.3,5.61,5.15,5.15,0,*42
1498449712.34,2529,21.0,73836.8,5.61,5.15,5.15,0,*43
1498449713.54,2530,21.0,73836.8,5.61,5.19,5.15,0,*47
1498449714.71,2531,21.0,73836.3,5.63,5.19,5.15,0,*44
1498449715.88,2532,21.0,73838.5,5.63,5.15,5.19,0,*47
1498449717.05,2533,21.0,73836.5,5.63,5.15,5.15,0,*4A
1498449718.22,2534,21.0,73836.8,5.63,5.15,5.15,0,*4D
1498449719.41,2535,21.0,73834.5,5.61,5.15,5.15,0,*4E
1498449720.58,2536,21.0,73836.5,5.63,5.19,5.15,0,*43
1498449721.75,2537,21.0,73836.0,5.63,5.15,5.19,0,*42
1498449722.92,2538,21.0,73838.3,5.63,5.15,5.19,0,*4D
1498449724.09,2539,21.0,73836.5,5.63,5.15,5.19,0,*4C
1498449725.29,2540,21.0,73836.8,5.63,5.05,5.07,0,*4C
1498449726.46,2541,21.0,73838.3,5.63,5.07,5.15,0,*4C
1498449727.63,2542,21.0,73836.3,5.63,5.15,5.07,0,*4F
1498449728.8,2543,21.0,73836.5,5.63,5.15,5.19,0,*41
1498449729.98,2544,21.0,73836.8,5.63,5.19,5.15,0,*46
1498449731.14,2545,21.0,73836.5,5.63,5.15,5.15,0,*4B
1498449732.31,2546,21.0,73838.0,5.63,5.15,5.15,0,*48
1498449733.48,2547,21.0,73838.0,5.63,5.15,5.19,0,*45
1498449734.65,2548,21.0,73838.3,5.63,5.15,5.15,0,*46
1498449735.82,2549,21.0,73840.0,5.63,5.15,5.15,0,*47
1498449736.99,2550,21.0,73838.3,5.63,5.15,5.07,0,*4C
1498449738.16,2551,21.0,73838.8,5.63,5.07,5.19,0,*41
1498449739.32,2552,21.0,73836.8,5.63,5.15,5.15,0,*4D
1498449740.49,2553,21.0,73840.8,5.63,5.15,5.15,0,*4C
1498449741.68,2554,21.0,73838.5,5.63,5.15,5.27,0,*4A
1498449742.86,2555,21.0,73836.3,5.63,5.19,5.19,0,*4A
1498449744.03,2556,21.0,73840.3,5.63,5.19,5.19,0,*49
1498449745.21,2557,21.0,73840.5,5.63,5.19,5.19,0,*48
1498449746.39,2558,21.0,73842.3,5.67,5.23,5.23,0,*43
1498449747.56,2559,21.0,73838.5,5.67,5.23,5.23,0,*42
1498449748.74,2560,21.0,73840.0,5.67,5.23,5.23,0,*48
1498449749.92,2561,21.0,73840.5,5.63,5.23,5.23,0,*4D
1498449751.11,2562,21.0,73840.8,5.63,5.19,5.27,0,*43
1498449752.28,2563,21.0,73836.5,5.67,5.23,5.29,0,*41
1498449753.44,2564,21.0,73842.0,5.67,5.29,5.29,0,*4C
1498449754.65,2565,21.0,73842.3,5.69,5.27,5.33,0,*46
1498449755.81,2566,21.0,73836.8,5.67,5.29,5.29,0,*4E
1498449757.0,2567,21.0,73842.0,5.69,5.33,5.33,0,*41
1498449758.16,2568,21.0,73838.0,5.67,5.29,5.33,0,*4B
1498449759.32,2569,21.0,73838.5,5.67,5.33,5.29,0,*4A
1498449760.51,2570,21.0,73840.3,5.69,5.33,5.37,0,*43
1498449761.67,2571,21.0,73836.8,5.67,5.29,5.29,0,*48
1498449762.86,2572,21.0,73842.5,5.69,5.37,5.33,0,*41
1498449764.05,2573,21.0,73836.3,5.69,5.37,5.33,0,*40
1498449765.21,2574,21.0,73842.0,5.67,5.33,5.29,0,*46
1498449766.38,2575,21.0,73840.3,5.67,5.33,5.33,0,*4C
1498449767.57,2576,21.0,73840.0,5.69,5.33,5.37,0,*45
1498449768.76,2577,21.0,73840.8,5.69,5.33,5.37,0,*44
1498449769.92,2578,21.0,73842.0,5.67,5.33,5.37,0,*45
1498449771.11,2579,21.0,73840.3,5.69,5.37,5.37,0,*4E
1498449772.3,2580,21.0,73836.0,5.69,5.37,5.37,0,*48
1498449773.46,2581,21.0,73842.0,5.67,5.37,5.37,0,*47
1498449774.62,2582,21.0,73836.0,5.71,5.37,5.49,0,*4A
1498449775.78,2583,21.0,73840.8,5.71,5.37,5.45,0,*47
1498449776.96,2584,21.0,73838.0,5.69,5.37,5.37,0,*4C
1498449778.15,2585,21.0,73836.0,5.69,5.37,5.37,0,*4D
1498449779.3,2586,21.0,73840.3,5.71,5.37,5.37,0,*47
1498449780.46,2587,21.0,73838.0,5.71,5.37,5.37,0,*46
1498449781.63,2588,21.0,73838.0,5.71,5.33,5.37,0,*4D
1498449782.79,2589,21.0,73840.3,5.71,5.33,5.37,0,*4C
1498449783.97,2590,21.0,73836.3,5.71,5.27,5.33,0,*45
1498449785.16,2591,21.0,73838.0,5.71,5.23,5.27,0,*45
1498449786.33,2592,21.0,73838.3,5.71,5.23,5.23,0,*42
1498449787.52,2593,21.0,73836.3,5.71,5.27,5.23,0,*47
1498449788.73,2594,21.0,73838.8,5.73,5.29,5.27,0,*48
1498449789.94,2595,21.0,73836.0,5.71,5.27,5.27,0,*45
1498449791.15,2596,21.0,73834.3,5.71,5.27,5.27,0,*46
1498449792.32,2597,21.0,73838.3,5.71,5.23,5.23,0,*47
1498449793.51,2598,21.0,73836.0,5.71,5.27,5.23,0,*4C
1498449794.68,2599,21.0,73836.0,5.71,5.23,5.23,0,*49
1498449795.88,2600,21.0,73832.5,5.69,5.23,5.23,0,*43
1498449797.05,2601,21.0,73834.8,5.71,5.15,5.23,0,*4E
1498449798.22,2602,21.0,73832.5,5.71,5.23,5.23,0,*48
1498449799.46,2603,21.0,73834.8,5.73,5.27,5.27,0,*4B
1498449800.64,2604,21.0,73834.0,5.73,5.29,5.29,0,*4C
1498449801.82,2605,21.0,73834.8,5.71,5.27,5.33,0,*4A
1498449803.0,2606,21.0,73832.0,5.71,5.27,5.33,0,*49
1498449804.19,2607,21.0,73834.0,5.71,5.27,5.23,0,*49
1498449805.37,2608,21.0,73834.8,5.73,5.29,5.29,0,*40
1498449806.56,2609,21.0,73834.0,5.73,5.29,5.29,0,*41
1498449807.76,2610,21.0,73832.5,5.71,5.27,5.27,0,*4B
1498449808.95,2611,21.0,73832.3,5.71,5.27,5.33,0,*4F
1498449810.13,2612,21.0,73832.5,5.73,5.29,5.37,0,*44
1498449811.31,2613,21.0,73834.3,5.73,5.29,5.37,0,*45
1498449812.49,2614,21.0,73834.3,5.73,5.29,5.29,0,*4D
1498449813.7,2615,21.0,73834.5,5.73,5.27,5.29,0,*42
1498449814.88,2616,21.0,73834.8,5.73,5.29,5.29,0,*4F
1498449816.09,2617,21.0,73836.8,5.71,5.27,5.27,0,*4C
1498449817.28,2618,21.0,73834.8,5.71,5.27,5.23,0,*47
1498449818.45,2619,21.0,73836.5,5.71,5.23,5.23,0,*42
1498449819.64,2620,21.0,73832.8,5.71,5.23,5.27,0,*4C
1498449820.84,2621,21.0,73832.0,5.73,5.27,5.29,0,*45
1498449822.05,2622,21.0,73834.3,5.73,5.27,5.37,0,*49
1498449823.24,2623,21.0,73830.5,5.71,5.23,5.27,0,*4F
1498449824.42,2624,21.0,73828.3,5.73,5.37,5.29,0,*41
1498449825.61,2625,21.0,73830.0,5.73,5.37,5.29,0,*40
1498449826.8,2626,21.0,73836.5,5.73,5.37,5.29,0,*43
1498449828.0,2627,21.0,73834.5,5.71,5.27,5.27,0,*4F
1498449829.21,2628,21.0,73836.5,5.71,5.27,5.27,0,*40
1498449830.39,2629,21.0,73834.8,5.73,5.29,5.29,0,*43
1498449831.57,2630,21.0,73836.0,5.73,5.29,5.37,0,*44
1498449832.75,2631,21.0,73834.5,5.73,5.29,5.29,0,*4A
1498449833.97,2632,21.0,73834.3,5.73,5.19,5.27,0,*44
1498449835.14,2633,21.0,73834.8,5.71,5.15,5.15,0,*4A
1498449836.33,2634,21.0,73834.8,5.73,5.15,5.15,0,*4F
1498449837.52,2635,21.0,73836.0,5.73,5.07,5.15,0,*4D
1498449838.71,2636,21.0,73836.8,5.73,5.07,5.07,0,*4D
1498449839.9,2637,21.0,73834.8,5.73,5.07,5.15,0,*4F
1498449841.09,2638,21.0,73834.0,5.73,5.07,5.15,0,*40
1498449842.26,2639,21.0,73836.3,5.71,5.07,5.15,0,*43
1498449843.43,2640,21.0,73834.0,5.71,5.07,5.07,0,*4E
1498449844.6,2641,21.0,73832.8,5.75,5.07,5.15,0,*48
1498449845.79,2642,21.0,73836.0,5.71,5.05,5.15,0,*4D
1498449846.98,2643,21.0,73834.3,5.73,5.15,5.15,0,*4F
1498449848.17,2644,21.0,73834.8,5.73,5.07,5.19,0,*47
1498449849.36,2645,21.0,73830.8,5.73,5.15,5.15,0,*49
1498449850.58,2646,21.0,73834.8,5.71,5.01,5.05,0,*4C
1498449851.77,2647,21.0,73838.3,5.73,5.07,5.15,0,*48
1498449852.97,2648,21.0,73834.3,5.73,5.07,5.07,0,*44
1498449854.19,2649,21.0,73834.5,5.71,5.05,5.05,0,*47
1498449855.4,2650,21.0,73836.5,5.73,5.07,5.05,0,*4F
1498449856.63,2651,21.0,73832.3,5.71,5.01,5.01,0,*4E
1498449857.85,2652,21.0,73830.8,5.73,5.05,5.07,0,*4D
1498449859.1,2653,21.0,73834.5,5.69,5.01,5.01,0,*45
1498449860.32,2654,21.0,73834.0,5.71,5.01,5.05,0,*4F
1498449861.55,2655,21.0,73830.5,5.71,5.01,5.01,0,*4A
1498449862.8,2656,21.0,73832.8,5.69,5.05,5.01,0,*44
1498449864.05,2657,21.0,73838.5,5.69,5.05,5.01,0,*45
1498449865.3,2658,21.0,73832.3,5.69,5.01,5.01,0,*4E
1498449866.55,2659,21.0,73830.8,5.69,5.01,5.01,0,*4F
1498449867.77,2660,21.0,73834.8,5.71,5.01,5.05,0,*48
1498449868.98,2661,21.0,73834.5,5.71,5.05,5.05,0,*4D
1498449870.21,2662,21.0,73838.0,5.69,5.05,5.11,0,*42
1498449871.43,2663,21.0,73836.5,5.69,5.05,5.11,0,*43
1498449872.65,2664,21.0,73832.8,5.69,5.05,5.11,0,*44
1498449873.82,2665,21.0,73834.3,5.71,5.11,5.11,0,*49
1498449875.02,2666,21.0,73834.0,5.71,5.05,5.07,0,*48
1498449876.24,2667,21.0,73832.3,5.71,5.01,5.05,0,*4F
1498449877.48,2668,21.0,73832.0,5.69,5.05,5.05,0,*4D
1498449878.68,2669,21.0,73834.8,5.73,5.07,5.07,0,*47
1498449879.92,2670,21.0,73834.8,5.69,5.05,5.05,0,*44
1498449881.12,2671,21.0,73836.0,5.67,5.05,5.07,0,*49
1498449882.32,2672,21.0,73836.5,5.69,5.11,5.11,0,*46
1498449883.51,2673,21.0,73834.8,5.69,5.11,5.11,0,*47
1498449884.71,2674,21.0,73836.0,5.69,5.15,5.11,0,*44
1498449885.92,2675,21.0,73832.5,5.69,5.11,5.05,0,*44
1498449887.12,2676,21.0,73836.0,5.71,5.11,5.05,0,*4E
1498449888.33,2677,21.0,73834.5,5.69,5.15,5.01,0,*46
1498449889.51,2678,21.0,73836.5,5.67,5.11,5.07,0,*45
1498449890.7,2679,21.0,73834.8,5.69,5.15,5.11,0,*49
1498449891.9,2680,21.0,73834.3,5.69,5.11,5.11,0,*4B
1498449893.09,2681,21.0,73834.0,5.69,5.11,5.11,0,*4A
1498449894.29,2682,21.0,73834.3,5.67,5.01,5.07,0,*41
1498449895.52,2683,21.0,73832.3,5.69,5.05,5.11,0,*4D
1498449896.74,2684,21.0,73832.0,5.69,5.05,5.11,0,*4A
1498449897.94,2685,21.0,73836.0,5.69,5.11,5.11,0,*4E
1498449899.13,2686,21.0,73838.8,5.69,5.11,5.11,0,*4D
1498449900.3,2687,21.0,73834.3,5.67,5.07,5.11,0,*45
1498449901.48,2688,21.0,73838.5,5.67,5.11,5.11,0,*4D
1498449902.66,2689,21.0,73836.8,5.69,5.15,5.15,0,*42
1498449903.86,2690,21.0,73836.8,5.69,5.23,5.15,0,*4F
1498449905.05,2691,21.0,73836.8,5.69,5.11,5.15,0,*4F
1498449906.24,2692,21.0,73838.3,5.69,5.15,5.15,0,*48
1498449907.43,2693,21.0,73836.0,5.69,5.15,5.15,0,*49
1498449908.63,2694,21.0,73834.5,5.69,5.15,5.23,0,*4B
1498449909.82,2695,21.0,73838.8,5.69,5.23,5.23,0,*4F
1498449911.02,2696,21.0,73836.8,5.69,5.23,5.23,0,*4C
1498449912.22,2697,21.0,73836.8,5.69,5.23,5.23,0,*4D
1498449913.44,2698,21.0,73836.3,5.69,5.33,5.27,0,*47
1498449914.65,2699,21.0,73838.5,5.69,5.27,5.23,0,*47
1498449915.83,2700,21.0,73832.0,5.73,5.29,5.29,0,*49
1498449917.04,2701,21.0,73836.5,5.71,5.27,5.27,0,*4A
1498449918.25,2702,21.0,73838.0,5.71,5.27,5.27,0,*49
1498449919.45,2703,21.0,73838.5,5.71,5.27,5.27,0,*48
1498449920.64,2704,21.0,73838.5,5.71,5.33,5.27,0,*4A
1498449921.85,2705,21.0,73836.0,5.73,5.29,5.27,0,*42
1498449923.04,2706,21.0,73838.3,5.71,5.23,5.27,0,*49
1498449924.23,2707,21.0,73836.8,5.71,5.27,5.23,0,*48
1498449925.42,2708,21.0,73838.3,5.71,5.23,5.27,0,*47
1498449926.6,2709,21.0,73838.8,5.71,5.29,5.27,0,*4C
1498449927.81,2710,21.0,73836.0,5.71,5.27,5.27,0,*4A
1498449928.99,2711,21.0,73834.3,5.71,5.29,5.27,0,*45
1498449930.15,2712,21.0,73834.3,5.71,5.29,5.37,0,*47
1498449931.33,2713,21.0,73838.3,5.73,5.29,5.37,0,*44
1498449932.54,2714,21.0,73836.8,5.73,5.27,5.29,0,*42
1498449933.72,2715,21.0,73838.0,5.73,5.29,5.29,0,*4D
1498449934.91,2716,21.0,73836.3,5.71,5.23,5.27,0,*48
1498449936.11,2717,21.0,73836.3,5.71,5.27,5.27,0,*4D
1498449937.32,2718,21.0,73838.5,5.73,5.27,5.29,0,*4E
1498449938.52,2719,21.0,73838.8,5.73,5.27,5.29,0,*4F
1498449939.71,2720,21.0,73838.8,5.71,5.23,5.27,0,*4D
1498449940.88,2721,21.0,73832.8,5.71,5.15,5.23,0,*4D
1498449942.12,2722,21.0,73836.5,5.73,5.27,5.27,0,*49
1498449943.32,2723,21.0,73836.5,5.71,5.27,5.27,0,*4A
1498449944.51,2724,21.0,73836.0,5.71,5.23,5.27,0,*49
1498449945.7,2725,21.0,73836.3,5.71,5.23,5.27,0,*48
1498449946.88,2726,21.0,73838.8,5.73,5.29,5.29,0,*4D
1498449948.07,2727,21.0,73834.8,5.73,5.37,5.29,0,*43
1498449949.25,2728,21.0,73838.5,5.73,5.29,5.29,0,*43
1498449950.43,2729,21.0,73838.5,5.73,5.29,5.37,0,*4D
1498449951.62,2730,21.0,73836.3,5.73,5.29,5.37,0,*45
1498449952.8,2731,21.0,73836.8,5.73,5.37,5.37,0,*4B
1498449953.98,2732,21.0,73836.8,5.73,5.29,5.37,0,*47
1498449955.17,2733,21.0,73836.8,5.73,5.29,5.37,0,*46
1498449956.35,2734,21.0,73836.3,5.73,5.37,5.37,0,*4E
1498449957.54,2735,21.0,73840.0,5.73,5.37,5.37,0,*4F
1498449958.7,2736,21.0,73840.3,5.75,5.29,5.41,0,*44
1498449959.88,2737,21.0,73838.8,5.77,5.29,5.41,0,*47
1498449961.04,2738,21.0,73836.0,5.75,5.29,5.37,0,*4B
1498449962.2,2739,21.0,73840.3,5.75,5.37,5.41,0,*44
1498449963.36,2740,21.0,73838.3,5.75,5.37,5.37,0,*4B
1498449964.53,2741,21.0,73840.3,5.75,5.37,5.37,0,*4A
1498449965.68,2742,21.0,73836.5,5.75,5.29,5.37,0,*46
1498449966.87,2743,21.0,73836.5,5.77,5.45,5.41,0,*4E
1498449968.03,2744,21.0,73836.3,5.75,5.37,5.37,0,*4F
1498449969.22,2745,21.0,73840.3,5.77,5.41,5.33,0,*49
1498449970.38,2746,21.0,73840.5,5.75,5.29,5.41,0,*43
1498449971.57,2747,21.0,73836.8,5.77,5.41,5.41,0,*4E
1498449972.75,2748,21.0,73838.0,5.77,5.41,5.41,0,*41
1498449973.92,2749,21.0,73842.0,5.75,5.41,5.41,0,*42
1498449975.08,2750,21.0,73838.5,5.75,5.41,5.37,0,*4B
1498449976.24,2751,21.0,73838.0,5.75,5.45,5.45,0,*4B
1498449977.4,2752,20.94,73834.8,5.75,5.37,5.37,0,*48
1498449978.58,2753,21.0,73840.0,5.77,5.45,5.41,0,*4F
1498449979.75,2754,21.0,73836.8,5.75,5.37,5.37,0,*4E
1498449980.93,2755,21.0,73836.0,5.77,5.45,5.41,0,*49
1498449982.09,2756,21.0,73838.5,5.75,5.37,5.37,0,*4C
1498449983.3,2757,21.0,73838.5,5.77,5.45,5.51,0,*4A
1498449984.48,2758,21.0,73840.3,5.77,5.41,5.41,0,*40
1498449985.67,2759,21.0,73836.0,5.77,5.41,5.45,0,*45
1498449986.83,2760,21.0,73836.3,5.79,5.49,5.45,0,*49
1498449987.99,2761,21.0,73836.0,5.79,5.45,5.49,0,*48
1498449989.15,2762,21.0,73838.5,5.79,5.45,5.45,0,*47
1498449990.34,2763,21.0,73840.3,5.77,5.41,5.41,0,*48
1498449991.52,2764,21.0,73836.3,5.77,5.33,5.29,0,*44
1498449992.71,2765,21.0,73838.3,5.79,5.27,5.37,0,*41
1498449993.87,2766,21.0,73838.0,5.79,5.37,5.33,0,*47
1498449995.04,2767,21.0,73838.0,5.79,5.33,5.37,0,*46
1498449996.2,2768,21.0,73836.5,5.79,5.33,5.37,0,*49
1498449997.39,2769,21.0,73836.3,5.77,5.33,5.29,0,*49
1498449998.55,2770,21.0,73840.3,5.79,5.37,5.37,0,*44
1498449999.72,2771,21.0,73836.8,5.79,5.33,5.37,0,*41
1498450000.88,2772,21.0,73840.8,5.79,5.45,5.37,0,*43
1498450002.03,2773,21.0,73842.0,5.79,5.45,5.37,0,*42
1498450003.2,2774,21.0,73840.0,5.79,5.37,5.45,0,*45
1498450004.36,2775,21.0,73836.3,5.79,5.33,5.45,0,*40
1498450005.52,2776,21.0,73838.0,5.79,5.37,5.45,0,*47
1498450006.69,2777,21.0,73836.8,5.79,5.33,5.33,0,*43
1498450007.86,2778,21.0,73838.0,5.79,5.33,5.37,0,*48
1498450009.02,2779,21.0,73840.3,5.79,5.33,5.33,0,*4D
1498450010.19,2780,21.0,73836.8,5.79,5.33,5.33,0,*4B
1498450011.4,2781,21.0,73840.3,5.79,5.27,5.27,0,*4A
1498450012.61,2782,21.0,73838.0,5.79,5.27,5.27,0,*49
1498450013.79,2783,21.0,73838.5,5.79,5.23,5.23,0,*48
1498450014.96,2784,21.0,73838.0,5.79,5.23,5.23,0,*4F
1498450016.16,2785,21.0,73836.8,5.79,5.23,5.27,0,*4A
1498450017.35,2786,21.0,73838.0,5.77,5.23,5.19,0,*4A
1498450018.55,2787,21.0,73838.0,5.77,5.23,5.19,0,*4B
1498450019.75,2788,21.0,73834.3,5.77,5.19,5.23,0,*44
1498450020.95,2789,21.0,73838.0,5.77,5.19,5.19,0,*4C
1498450022.15,2790,21.0,73836.3,5.77,5.19,5.11,0,*4C
1498450023.35,2791,21.0,73838.8,5.77,5.19,5.19,0,*45
1498450024.55,2792,21.0,73838.5,5.77,5.19,5.19,0,*46
1498450025.75,2793,21.0,73838.5,5.77,5.19,5.23,0,*4E
1498450026.93,2794,21.0,73836.3,5.75,5.19,5.19,0,*42
1498450028.13,2795,21.0,73838.8,5.77,5.23,5.23,0,*41
1498450029.3,2796,21.0,73836.8,5.79,5.23,5.33,0,*4D
1498450030.47,2797,21.0,73842.0,5.79,5.23,5.37,0,*48
1498450031.65,2798,21.0,73838.5,5.77,5.23,5.29,0,*46
1498450032.83,2799,21.0,73838.8,5.77,5.29,5.29,0,*4D
1498450034.02,2800,21.0,73836.8,5.77,5.23,5.29,0,*48
1498450035.21,2801,21.0,73838.8,5.77,5.29,5.33,0,*48
1498450036.37,2802,21.0,73840.5,5.79,5.37,5.33,0,*4A
1498450037.54,2803,21.0,73838.0,5.79,5.33,5.33,0,*4F
1498450038.74,2804,21.0,73842.0,5.77,5.33,5.33,0,*46
1498450039.92,2805,21.0,73838.8,5.77,5.29,5.29,0,*47
1498450041.1,2806,21.0,73838.0,5.77,5.23,5.29,0,*4E
1498450042.3,2807,21.0,73838.5,5.77,5.23,5.23,0,*45
1498450043.5,2808,21.0,73840.3,5.77,5.23,5.19,0,*43
1498450044.7,2809,21.0,73838.5,5.77,5.11,5.07,0,*4C
1498450045.89,2810,21.0,73838.8,5.77,5.07,5.07,0,*43
1498450047.08,2811,21.0,73840.3,5.77,5.07,5.11,0,*45
1498450048.26,2812,21.0,73840.0,5.79,5.11,5.11,0,*4F
1498450049.43,2813,21.0,73838.3,5.79,5.11,5.11,0,*4E
1498450050.63,2814,20.94,73838.8,5.77,5.11,5.07,0,*40
1498450051.82,2815,21.0,73842.0,5.77,5.11,5.19,0,*4E
1498450053.02,2816,21.0,73838.5,5.77,5.19,5.11,0,*4D
1498450054.22,2817,21.0,73840.3,5.77,5.23,5.23,0,*44
1498450055.42,2818,21.0,73838.0,5.77,5.19,5.19,0,*4B
1498450056.62,2819,21.0,73836.8,5.77,5.19,5.19,0,*4A
1498450057.82,2820,21.0,73840.0,5.77,5.19,5.23,0,*49
1498450059.02,2821,21.0,73838.8,5.77,5.23,5.23,0,*41
1498450060.22,2822,21.0,73838.8,5.77,5.23,5.23,0,*42
1498450061.42,2823,21.0,73840.0,5.77,5.23,5.23,0,*43
1498450062.59,2824,21.0,73842.0,5.79,5.33,5.33,0,*4A
1498450063.78,2825,20.94,73838.3,5.77,5.23,5.33,0,*44
1498450064.97,2826,21.0,73840.3,5.77,5.29,5.33,0,*4D
1498450066.13,2827,21.0,73840.5,5.79,5.37,5.33,0,*4D
1498450067.3,2828,21.0,73838.8,5.79,5.37,5.33,0,*42
1498450068.47,2829,20.94,73838.3,5.79,5.33,5.33,0,*47
1498450069.63,2830,21.0,73840.8,5.79,5.33,5.37,0,*4B
1498450070.8,2831,21.0,73840.0,5.79,5.33,5.37,0,*4A
1498450071.96,2832,21.0,73840.0,5.79,5.37,5.37,0,*4D
1498450073.12,2833,21.0,73838.8,5.79,5.37,5.37,0,*4C
1498450074.28,2834,21.0,73838.3,5.79,5.45,5.37,0,*4E
1498450075.47,2835,21.0,73838.5,5.81,5.37,5.37,0,*4D
1498450076.62,2836,21.0,73842.5,5.79,5.45,5.45,0,*49
1498450077.81,2837,21.0,73838.8,5.81,5.37,5.45,0,*4A
1498450078.97,2838,21.0,73840.3,5.79,5.45,5.49,0,*4B
1498450080.13,2839,21.0,73840.8,5.79,5.45,5.37,0,*43
1498450081.28,2840,21.0,73842.5,5.79,5.45,5.45,0,*48
1498450082.46,2841,21.0,73842.3,5.81,5.45,5.45,0,*4E
1498450083.65,2842,21.0,73840.3,5.81,5.33,5.37,0,*49
1498450084.82,2843,21.0,73838.0,5.79,5.33,5.37,0,*4F
1498450086.01,2844,21.0,73844.5,5.79,5.27,5.23,0,*48
1498450087.21,2845,21.0,73840.5,5.81,5.23,5.23,0,*4A
1498450088.38,2846,21.0,73842.0,5.79,5.11,5.11,0,*4E
1498450089.58,2847,21.0,73842.8,5.81,5.15,5.11,0,*4C
1498450090.74,2848,21.0,73836.3,5.79,5.15,5.15,0,*40
1498450091.91,2849,21.0,73838.0,5.79,5.11,5.11,0,*41
1498450093.11,2850,21.0,73840.0,5.81,5.11,5.11,0,*4E
1498450094.28,2851,21.0,73838.3,5.79,5.11,5.11,0,*48
1498450095.48,2852,21.0,73840.3,5.81,5.11,5.11,0,*4C
1498450096.65,2853,21.0,73840.3,5.79,5.11,5.15,0,*4E
1498450097.84,2854,21.0,73838.5,5.81,5.15,5.15,0,*4A
1498450099.01,2855,21.0,73842.8,5.79,5.11,5.11,0,*4C
1498450100.18,2856,21.0,73840.5,5.79,5.15,5.11,0,*4B
1498450101.35,2857,21.0,73840.5,5.79,5.11,5.15,0,*4A
1498450102.52,2858,21.0,73842.0,5.79,5.15,5.11,0,*45
1498450103.69,2859,21.0,73840.5,5.79,5.11,5.11,0,*40
1498450104.87,2860,21.0,73838.5,5.79,5.11,5.11,0,*4A
1498450106.04,2861,21.0,73836.0,5.79,5.11,5.11,0,*4B
1498450107.23,2862,21.0,73836.5,5.77,5.07,5.07,0,*46
1498450108.41,2863,21.0,73836.0,5.79,5.11,5.07,0,*4E
1498450109.58,2864,21.0,73836.5,5.79,5.11,5.11,0,*4E
1498450110.75,2865,21.0,73838.5,5.79,5.11,5.15,0,*4B
1498450111.92,2866,21.0,73836.3,5.79,5.15,5.11,0,*48
1498450113.11,2867,21.0,73838.8,5.77,5.11,5.11,0,*43
1498450114.31,2868,21.0,73838.0,5.77,5.11,5.11,0,*4C
1498450115.51,2869,21.0,73836.3,5.77,5.19,5.23,0,*44
1498450116.69,2870,21.0,73836.5,5.79,5.23,5.23,0,*4B
1498450117.88,2871,21.0,73834.3,5.79,5.27,5.23,0,*4E
1498450119.05,2872,20.94,73834.3,5.79,5.15,5.23,0,*4C
1498450120.23,2873,21.0,73834.0,5.79,5.15,5.23,0,*4D
1498450121.4,2874,21.0,73832.8,5.79,5.23,5.23,0,*4F
1498450122.59,2875,21.0,73836.0,5.79,5.27,5.23,0,*4A
1498450123.79,2876,21.0,73836.8,5.79,5.23,5.27,0,*49
1498450124.98,2877,21.0,73838.5,5.77,5.11,5.11,0,*42
1498450126.23,2878,21.0,73836.3,5.77,5.05,5.05,0,*4D
1498450127.47,2879,21.0,73834.3,5.77,4.97,4.97,0,*4C
1498450128.72,2880,21.0,73834.8,5.77,4.93,4.97,0,*4E
1498450129.97,2881,21.0,73834.0,5.77,4.93,4.97,0,*4F
1498450131.15,2882,21.0,73832.5,5.77,4.85,4.81,0,*4C
1498450132.32,2883,20.94,73830.5,5.75,4.85,4.85,0,*4B
1498450133.48,2884,21.0,73832.0,5.75,4.81,4.81,0,*4C
1498450134.7,2885,21.0,73832.5,5.75,4.79,4.79,0,*4D
1498450135.89,2886,21.0,73834.3,5.77,4.85,4.85,0,*4C
1498450137.11,2887,21.0,73832.5,5.77,4.93,4.85,0,*4A